sat.trackr.live / text

‹ back to catalog

KUIPER-00452

NORAD 68946 · 2026-098AD

PAYLOAD ACTIVE UNKNOWN

§ Identity

Operator
Country
US
Launch date
2026-04-30
Launch site
FRGUI
Launch vehicle
Mass (kg)
RCS (m²)

External: N2YO · Heavens-Above · Gunter

§ Orbital elements

Epoch: 2026-05-24T12:30:09.832032Z

Period
93.78 min
Inclination
51.8739°
Eccentricity
0.0003948
Mean motion
15.35546695 rev/d
Perigee alt
456.6 km
Apogee alt
462.0 km
Semi-major
6,837.4 km
B*
1.2665e-4
RAAN
181.6443°
Arg perigee
52.1903°
Mean anomaly
307.9440°
Rev number
371

§ Raw data

KUIPER-004521 68946U 26098AD  26144.52094713  .00004062  00000+0  12665-3 0  99902 68946  51.8739 181.6443 0003948  52.1903 307.9440 15.35546695  3716

JSON: /api/v1/satellites/68946 · /tle

For live sub-satellite position, see the globe view (requires WebGL).

§ Visibility from observer

Set your observer location to see the next 7 days of passes ≥ 10°. The values pass through the URL so the page stays shareable.

No JS? Fill the form by hand. The geolocation button needs JavaScript.